Location: La Coruña
(43.3623°N, 8.4115°W)
Time: 03:02:28
(UTC+01:00)

STARLINK-1144 - Pass Details

Date: 19 January 2020
Orbit: 528 x 531 km, 53.0° (Epoch: 17 February)

Event Time Altitude Azimuth Distance (km) Brightness Sun altitude
Rises 19:41:37 0° 263° (W) 2,637 9.0 -13.3°
Reaches altitude 10° 19:43:59 10° 273° (W) 1,747 7.4 -13.7°
Maximum altitude 19:47:34 32° 338° (NNW) 900 4.8 -14.4°
Enters shadow 19:49:53 18° 32° (NNE) 1,318 5.1 -14.8°
